Showing default

QIANFAN-38, 62239

Orbit data source: Space-Track

QIANFAN-38, 62239 is a Chinese payload satellite in LEO that was launched on Thu, 05 Dec 2024 UTC via a CHANG ZHENG 6A launch vehicle from the Taiyaun Space Center, China (TSC). Payloads include a variety of satellites, spacecraft, and rockets equipped with specific instruments for various scientific and technological missions. These include communications satellites like Starlink; space stations such as the ISS; scientific satellites like the Hubble; Earth observation satellites from companies like Planet Labs, Umbra, and HawkEye 360; GPS; miniature CubeSats for education and research; and military/defense satellites.

Loading next visibility...
QIANFAN-38 details
Identifier
62239, 2024-232C
Orbit
LEO
Last TLE update10 hours ago
Origin
Flag of CNYUANX (CN / PRC)
ManufacturerSECM
MissionOperational Commercial Communications
Bus & MotorQIANFAN, Unknown motor
Mass300 kg wet, ~300 kg dry
Launch date (UTC)
2024-12-05 (2 months ago)
Launch vehicle
CHANG ZHENG 6A
Launch site
Taiyaun Space Center, China (TSC)
Object type
Payload
Rocket body
Debris
Shape & HBRBox + 1 Pan, 10 m
Radar Cross Section13.200 m², Large (>1 m²)

Expand to show TLE details & history

TLE from 10 hours ago
0 QIANFAN-38
1 62239U 24232C   25035.86018563  .00000413  00000-0  18887-3 0  9990
2 62239  88.9885  73.0657 0015836  24.4958 335.6981 14.19605094 57098
Epoch: 2025-02-04T20:38Z
Definitive object data (Epoch: 2025-02-04T20:38:40.038Z)
Latitude-0.00001°
Longitude-11.86054°
Altitude819.343 km
Speed7.449 km/s
True Right ascension04h 52m 15s
True Declination0° 00' 00"
Sunlit
Object was in daylight at TLE epoch
Visualization TLE readout
Latitude-10.68217°
Longitude-12.09859°
Altitude822.238 km
Speed7.446 km/s
Apparent Right ascension02h 00m 31s
Apparent Declination-41° 06' 34"
Sunlit
Object is in daylight
Visualization observer readout
Local Sidereal Time08:46:54
Azimuth241.12° WSW
Elevation-32.553°
Doppler factor1
Orbital elements
Apogee altitude835.045 km
Perigee altitude812.236 km
Semi-major axis7,201.777 km
Eccentricity0.0015836
Inclination88.9885°
RAAN73.0657°
Arg. of periapsis24.4958°
True anomaly335.62328°
Mean anomaly335.6981°
Eccentric anomaly335.66071°
Mean motion3.55127 °/min
BSTAR0.00018887
Orbital period101.37 mins
Loading maneuver chart data...
Loading historical data...
Loading historical data...
Loading historical data...
Loading historical data...
Loading historical data...
Loading historical data...
Loading historical data...

QIANFAN-38 Visibility forecast

Observer location: undefined°, undefined

Span
Click to sort rows by Start time (UTC) header in descending order
Start Az.
Max El. time (UTC)
Max El. Az.
Max El.
End time (UTC)
End Az.
9 mins2025-02-05 14:08:41.180Z17.109° NNE2025-02-05 14:12:41.180Z74.814° E35.301°2025-02-05 14:17:41.180Z157.292° SSE
6 mins2025-02-05 15:51:41.180Z316.095° NNW2025-02-05 15:53:41.180Z289.269° WNW19.725°2025-02-05 15:57:41.180Z238.715° WSW
5 mins2025-02-06 01:33:41.180Z105.787° ESE2025-02-06 01:35:41.180Z79.44° E17.891°2025-02-06 01:38:41.180Z40.803° NE
8 mins2025-02-06 03:13:41.180Z206.708° SW2025-02-06 03:16:41.180Z265.044° W37.363°2025-02-06 03:21:41.180Z346.823° N
|